Find Starlink 33734

NORAD ID: 63367 Int'l Des: 2025-063 Owner: SPXS Country: US Constellation: starlink operational
LEOCIRCULAR

当前视图

正在加载3D地球...

About Starlink 33734

Starlink 33734 (NORAD 63367) is a starlink constellation satellite (v2 mini) launched Mar 26, 2025 by SPXS of US. It operates in LEO, CIRCULAR orbit with a mass of 575.00 kg.

关于 Starlink 33734

正在加载描述...

即将过境

Passes for default location (London). Set your location on the main map for personalized predictions.

高度历史

Loading altitude history...

两行轨道根数

1 63367U 25063E 26166.17134735 .00017500 00000-0 60149-3 0 9999
2 63367 53.1621 329.6430 0001183 95.6708 264.4428 15.30204709 69499
Epoch: Jun 15, 2026 • Age: 17 hours

当前状态

高度 483.5 km
速度 7.62 km/s
星下点 -26.95°S, 46.25°W
发射日期 Mar 26, 2025
运行时间 1.2 years
类型 internet

技术详情

分类 Payload
质量 575.00 kg
干质量 530.00 kg
总质量 575.00 kg
长度 0.30 m
直径 4.10 m
跨度 29.00 m
形状 Box + pan
制造商 SPXS
平台类型 Starlink V2MO
阶段状态 In Orbit
所有者/国家 SPXS/US

Most Searched